Tracking 27112 objects as of 27-Mar-2023
HD Live streaming from Space Station
objects crossing your sky now

SL-16 DEB

Track SL-16 DEB now!
10-day predictions


NORAD ID: 22419
Int'l Code: 1992-093DL
Perigee: 840.5 km
Apogee: 996.3 km
Inclination: 71.2 °
Period: 103.2 minutes
Semi major axis: 7289 km
RCS: 0.0695 m2 (small)
Launch date: December 25, 1992
Source: Commonwealth of Independent States (former USSR) (CIS)
Launch site: TYURATAM MISSILE AND SPACE COMPLEX (TTMTR)

Note: This is SATELLITE DEBRIS
Your satellite tracking list
Your tracking list is empty




NASA's NSSDC Master Catalog

Two Line Element Set (TLE):
1 22419U 92093DL  23085.91055735  .00000428  00000-0  33426-3 0  9999
2 22419  71.1821  20.7027 0106878 164.9014 195.5333 13.94968243536702
Source of the keplerian elements: AFSPC